This demonstration page uses our WeatherBlox Daily Observations layout. Learn more.

Left ArrowRight Arrow

41.86663, -103.66717

Hourly Observations for November 23, 2019

Temp ( °F °C ) Dew Point ( °F °C ) Humidity (%) Winds ( mph kmh ) Pressure ( in mb ) Visibility ( mi km ) Precip ( " mm )
12:53 am 00:53 Clear 29 -1.7 22 -5.6 75 75 NW 9 15 30.05 1018 10 16 0.00 0.00
1:53 am 01:53 Clear 32 0 23 -5 69 69 WNW 16 26 30.05 1018 10 16 0.00 0.00
2:53 am 02:53 Clear 32 0 24 -4.4 73 73 WNW 12 19 30.06 1018 10 16 0.00 0.00
3:53 am 03:53 Clear 29 -1.7 22 -5.6 75 75 NW 10 17 30.09 1019 10 16 0.00 0.00
4:53 am 04:53 Clear 28 -2.2 22 -5.6 78 78 NW 9 15 30.11 1020 10 16 0.00 0.00
5:53 am 05:53 Clear 27 -2.8 21 -6.1 78 78 NW 9 15 30.14 1021 10 16 0.00 0.00
6:53 am 06:53 Clear 21 -6.1 18 -7.8 88 88 NW 7 11 30.17 1022 10 16 0.00 0.00
7:53 am 07:53 Sunny 29 -1.7 23 -5 78 78 NW 6 9 30.15 1021 10 16 0.00 0.00
8:53 am 08:53 Sunny 37 2.8 26 -3.3 65 65 WNW 8 13 30.13 1020 10 16 0.00 0.00
9:53 am 09:53 Sunny 44 6.7 28 -2.2 53 53 NW 14 22 30.12 1020 10 16 0.00 0.00
10:53 am 10:53 Sunny 52 11.1 26 -3.3 37 37 WNW 16 26 30.06 1018 10 16 0.00 0.00
11:53 am 11:53 Sunny 56 13.3 24 -4.4 29 29 W 16 26 30.01 1016 10 16 0.00 0.00
12:53 pm 12:53 Sunny 56 13.3 23 -5 28 28 WNW 21 33 30.00 1016 10 16 0.00 0.00
2:53 pm 14:53 Sunny 56 13.3 24 -4.4 29 29 W 16 26 29.98 1015 10 16 0.00 0.00
3:53 pm 15:53 Sunny 52 11.1 23 -5 32 32 W 14 22 29.98 1015 10 16 0.00 0.00
4:53 pm 16:53 Clear 47 8.3 24 -4.4 41 41 W 9 15 30.02 1017 10 16 0.00 0.00
5:53 pm 17:53 Clear 44 6.7 25 -3.9 47 47 WNW 12 19 30.05 1018 10 16 0.00 0.00
6:53 pm 18:53 Clear 42 5.6 25 -3.9 51 51 W 12 19 30.07 1018 10 16 0.00 0.00
7:53 pm 19:53 Clear 39 3.9 24 -4.4 55 55 W 8 13 30.07 1018 10 16 0.00 0.00
8:53 pm 20:53 Clear 29 -1.7 22 -5.6 75 75 Calm 30.07 1018 10 16 0.00 0.00
9:53 pm 21:53 Clear 32 0 24 -4.4 73 73 NW 8 13 30.04 1017 10 16 0.00 0.00
10:53 pm 22:53 Clear 31 -0.6 23 -5 72 72 WNW 5 7 30.02 1017 10 16 0.00 0.00
11:53 pm 23:53 Clear 30 -1.1 23 -5 75 75 WNW 5 7 30.00 1016 10 16 0.00 0.00

Powered by AerisWeather